User: anonymous   Login
Location: ???????
(54.9567°N, 38.2836°E)
Time: 14:18:39
(UTC+00:00)
Language:

Envisat - Orbit

View from above orbital plane
View from above orbital plane
View from above satellite
View from above satellite

Ground track
Ground track

The orbit data is extracted from the following two-line orbital elements,

1 27386U 02009A   24175.90024170  .00000155  00000-0  64411-4 0  9990
2 27386  98.2825 136.7553 0001374  90.2939 280.8266 14.38593634169474
Epoch (UTC): 23 June 2024 21:36:20
Eccentricity: 0.0001374
inclination: 98.2825°
perigee height: 762 km
apogee height: 764 km
right ascension of ascending node: 136.7553°
argument of perigee: 90.2939°
revolutions per day: 14.38593634
mean anomaly at epoch: 280.8266°
orbit number at epoch: 16947

The dashed part of the orbit path shows where the satellite is in the earth's shadow,  

DLR